Flag for Morocco Weather past 2 weeks in Tangier, Morocco

Now
64 °F

Passing clouds.


Feels Like: 64 °F
Forecast: 54 / 69 °F
Wind: 16 mph from Northwest

Location: Tanger Aerodrome


UV Index: 7 (High)

Visibility: N/A


Pressure: 30.18 "Hg

Humidity: 56%

Dew point: 48 °F

Location of TangierLocation

Historic Weather in Tangier

°F

Tangier temperature yesterday

Maximum temperature yesterday: 70 °F (at 2:30 PM)
Minimum temperature yesterday: 50 °F (at 1:30 AM)
Average temperature yesterday: 59 °F

Past Weeks' High & Low Weather Summary

 TemperatureHumidityPressure
High77 °F (Apr 11, 3:00 PM)94% (Apr 11, 9:00 PM)30.21 "Hg (Apr 11, 9:00 PM)
Low50 °F (Apr 13, 12:30 AM)41% (Apr 9, 5:00 PM)29.71 "Hg (Apr 20, 6:00 PM)
Average63 °F76%29.99 "Hg
* Reported Apr 9 5:00 PM — Apr 24 5:30 PM, Tangier, Weather by CustomWeather, © 2014

Note: Actual official high and low records may vary slightly from our data, if they occured in-between our weather recording intervals... More about our weather records

Advertising

Historic Weather Conditions — Data for Previous 24 hours

 ConditionsComfort  
Time TempWeatherWind HumidityBarometerVisibility
5:30 PM
Apr 24
64 °FScattered clouds.16 mph64%30.18 "HgN/A
5:00 PM66 °FScattered clouds.17 mph56%30.18 "HgN/A
4:30 PM66 °FScattered clouds.20 mph56%30.18 "HgN/A
4:00 PM64 °FPartly sunny.17 mph56%30.18 "HgN/A
3:30 PM64 °FPartly sunny.14 mph52%30.18 "HgN/A
3:00 PM66 °FPartly sunny.14 mph56%30.18 "HgN/A
2:30 PM66 °FPartly sunny.12 mph60%30.18 "HgN/A
2:00 PM64 °FPartly sunny.12 mph68%30.18 "Hg5 mi
1:30 PM64 °FPartly sunny.10 mph64%30.18 "Hg5 mi
1:00 PM64 °FPartly sunny.13 mph73%30.18 "Hg5 mi
12:30 PM64 °FPartly sunny.12 mph83%30.18 "Hg4 mi
12:00 PM63 °FPartly sunny.12 mph73%30.21 "Hg4 mi
11:30 AM61 °FPartly sunny.12 mph88%30.18 "Hg4 mi
11:00 AM63 °FLight rain. Partly sunny.14 mph83%30.18 "Hg4 mi
10:30 AM66 °FPartly sunny.12 mph78%30.18 "HgN/A
10:00 AM63 °FScattered clouds.10 mph83%30.18 "HgN/A
9:30 AM63 °FScattered clouds.7 mph88%30.18 "HgN/A
9:00 AM61 °FPartly sunny.8 mph88%30.18 "HgN/A
8:30 AM59 °FScattered clouds.3 mph94%30.18 "HgN/A
8:00 AM57 °FScattered clouds.No wind94%30.15 "HgN/A
7:30 AM52 °FScattered clouds.No wind94%30.15 "HgN/A
7:00 AM52 °FScattered clouds.1 mph88%30.15 "HgN/A
6:30 AM52 °FScattered clouds.No wind94%30.12 "HgN/A
6:00 AM52 °FScattered clouds.No wind94%30.12 "HgN/A
5:30 AM54 °FPassing clouds.No wind88%30.12 "HgN/A
1:00 AM52 °FPassing clouds.No wind94%30.15 "HgN/A
12:30 AM54 °FPassing clouds.No wind88%30.18 "HgN/A
12:00 AM54 °FPassing clouds.No wind88%30.18 "HgN/A
11:30 PM
Apr 23
54 °FPassing clouds.No wind88%30.18 "HgN/A
11:00 PM54 °FPassing clouds.No wind88%30.18 "HgN/A
10:30 PM55 °FPassing clouds.2 mph88%30.18 "HgN/A
10:00 PM55 °FPassing clouds.No wind94%30.18 "HgN/A
9:30 PM57 °FPassing clouds.No wind88%30.15 "HgN/A
9:00 PM59 °FPassing clouds.3 mph82%30.15 "HgN/A
8:30 PM59 °FPassing clouds.3 mph88%30.15 "HgN/A
8:00 PM61 °FPassing clouds.5 mph83%30.15 "HgN/A
7:30 PM63 °FPassing clouds.9 mph83%30.15 "HgN/A
7:00 PM64 °FScattered clouds.8 mph73%30.15 "HgN/A
6:30 PM66 °FScattered clouds.9 mph73%30.15 "HgN/A
6:00 PM68 °FScattered clouds.8 mph69%30.15 "HgN/A
Weather by CustomWeather, © 2014

See weather overview